Location: Friaudour
(46.0460°N, 1.2873°E)
Time: 15:06:58
(UTC+00:00)

Spot 4 Rocket - Pass Details

Date: 25 October 2020
Orbit: 776 x 781 km, 98.7° (Epoch: 29 November)

Event Time Altitude Azimuth Distance (km) Brightness Sun altitude
Rises 04:41:46 0° 1° (N) 3,270 7.3 -18.7°
Reaches altitude 10° 04:44:41 10° 345° (NNW) 2,338 6.4 -18.2°
Enters shadow 04:47:07 18° 317° (NW) 1,844 5.6 -17.7°
